This demonstration page uses our WeatherBlox Daily Observations layout. Learn more.

Left ArrowRight Arrow

30.00354, -91.81873

Hourly Observations for October 5, 2022

Temp ( °F °C ) Dew Point ( °F °C ) Humidity (%) Winds ( mph kmh ) Pressure ( in mb ) Visibility ( mi km ) Precip ( " mm )
12:53 am 00:53 Clear 64 17.8 60 15.6 87 87 Calm 30.05 1018 10 16 0.00 0.00
1:53 am 01:53 Clear 66 18.9 63 17.2 90 90 Calm 30.05 1018 10 16 0.00 0.00
2:53 am 02:53 Clear 64 17.8 61 16.1 90 90 Calm 30.05 1018 10 16 0.00 0.00
3:41 am 03:41 Clear with Mist and Fog 63 17.2 61 16.1 93 93 Calm 30.05 1018 2 3 0.00 0.00
3:53 am 03:53 Clear with Mist and Fog 63 17.2 60 15.6 90 90 Calm 30.04 1017 3 5 0.00 0.00
4:06 am 04:06 Mostly Cloudy with Mist and Fog 65 18.3 62 16.7 90 90 Calm 30.05 1018 4 6 0.00 0.00
4:18 am 04:18 Mostly Cloudy with Mist and Fog 63 17.2 61 16.1 93 93 Calm 30.05 1018 4 6 0.00 0.00
4:53 am 04:53 Mostly Clear 64 17.8 61 16.1 90 90 Calm 30.04 1017 10 16 0.00 0.00
5:53 am 05:53 Clear 63 17.2 62 16.7 97 97 Calm 30.06 1018 8 13 0.00 0.00
6:53 am 06:53 Clear 63 17.2 61 16.1 93 93 Calm 30.07 1018 7 11 0.00 0.00
7:53 am 07:53 Sunny 67 19.4 64 17.8 90 90 NE 5 7 30.08 1019 10 16 0.00 0.00
8:53 am 08:53 Sunny 72 22.2 64 17.8 76 76 E 3 6 30.09 1019 10 16 0.00 0.00
9:53 am 09:53 Sunny 77 25 64 17.8 64 64 VRB 5 7 30.10 1019 10 16 0.00 0.00
10:53 am 10:53 Sunny 81 27.2 60 15.6 49 49 NNE 5 7 30.10 1019 10 16 0.00 0.00
11:53 am 11:53 Sunny 82 27.8 59 15 46 46 S 3 6 30.09 1019 10 16 0.00 0.00
12:53 pm 12:53 Mostly Sunny 83 28.3 58 14.4 43 43 NE 6 9 30.07 1018 10 16 0.00 0.00
1:53 pm 13:53 Sunny 85 29.4 58 14.4 40 40 E 8 13 30.05 1018 10 16 0.00 0.00
2:53 pm 14:53 Partly Cloudy 83 28.3 57 13.9 41 41 ENE 7 11 30.03 1017 10 16 0.00 0.00
3:53 pm 15:53 Sunny 86 30 58 14.4 39 39 NE 8 13 30.02 1017 10 16 0.00 0.00
4:53 pm 16:53 Sunny 84 28.9 57 13.9 40 40 VRB 3 6 30.02 1017 10 16 0.00 0.00
5:53 pm 17:53 Sunny 82 27.8 59 15 46 46 SSW 5 7 30.02 1017 10 16 0.00 0.00
6:53 pm 18:53 Clear 75 23.9 62 16.7 64 64 SSW 5 7 30.04 1017 10 16 0.00 0.00
7:53 pm 19:53 Clear 70 21.1 62 16.7 76 76 SSW 3 6 30.05 1018 10 16 0.00 0.00
8:53 pm 20:53 Clear 68 20 62 16.7 81 81 W 3 6 30.07 1018 10 16 0.00 0.00
9:53 pm 21:53 Mostly Clear 67 19.4 61 16.1 81 81 Calm 30.08 1019 10 16 0.00 0.00
10:53 pm 22:53 Mostly Cloudy 67 19.4 64 17.8 90 90 Calm 30.09 1019 10 16 0.00 0.00
11:53 pm 23:53 Mostly Cloudy 66 18.9 62 16.7 87 87 Calm 30.09 1019 10 16 0.00 0.00

Powered by AerisWeather